Location: Aragnouet
(42.7874°N, 0.2165°E)
Time: 00:20:12
(UTC+00:00)

Cosmos 1328 - Pass Details

Date: 09 April 2020
Orbit: 539 x 544 km, 82.5° (Epoch: 02 June)

Event Time Altitude Azimuth Distance (km) Brightness Sun altitude
Rises 19:05:47 0° 358° (N) 2,720 7.6 -6.3°
Reaches altitude 10° 19:08:02 10° 5° (N) 1,822 6.6 -6.7°
Maximum altitude 19:11:52 42° 78° (ENE) 782 4.2 -7.4°
Drops below altitude 10° 19:15:40 10° 150° (SSE) 1,808 6.0 -8.0°
Enters shadow 19:17:47 - 157° (SSE) 2,652 6.9 -8.4°
